Regional Weather Roundup
Issued by NWS

Home | Current Version | Previous Version | Text Only | Print | Product List | Glossary On
Versions: 1 2 3 4 5 6 7 8 9 10 11 12 13 14 15 16 17 18 19 20 21 22 23 24 25 26 27 28 29 30 31 32 33 34 35 36 37 38 39 40 41 42 43 44 45 46 47 48 49 50
000
ASUS43 KMPX 300010
RWRMN
WEATHER ROUNDUP FOR MINNESOTA
NATIONAL WEATHER SERVICE TWIN CITIES/CHANHASSEN MN
700 PM CDT MON AUG 29 2016


NOTE: "FAIR" INDICATES FEW OR NO CLOUDS BELOW 12,000 FEET WITH NO
SIGNIFICANT WEATHER AND/OR OBSTRUCTIONS TO VISIBILITY. N/A MEANS
CURRENT SKY AND/OR WEATHER CONDITIONS ARE NOT AVAILABLE.

MNZ060>063-068>070-300100-
   Twin Cities Metro

CITY           SKY/WX    TMP DP  RH WIND       PRES   REMARKS
TWIN CITIES    MOCLDY    83  69  62 SW9       30.11F
6HR MIN TEMP:  81; 6HR MAX TEMP:  86;

ST PAUL        CLEAR     82  72  71 SW3       30.10F
CRYSTAL        PTCLDY    83  69  62 SW7       30.10F
BLAINE         MOCLDY    84  72  65 SW7       30.11F
LAKEVILLE      PTCLDY    77  70  78 CALM      30.12F
EDEN PRAIRIE   PTCLDY    82  72  71 S8        30.10F
6HR MIN TEMP:  82; 6HR MAX TEMP:  86;

LAKEVILLE      PTCLDY    77  70  78 CALM      30.12F
SOUTH ST PAUL  PTCLDY    82  71  69 S6        30.11S
LAKE ELMO      FAIR      81  72  74 SW6       30.13S
$$
MNZ001>005-007-008-013>017-022>024-027-028-300100-
   Northwest Minnesota

CITY           SKY/WX    TMP DP  RH WIND       PRES   REMARKS
BEMIDJI        PTCLDY    74  63  69 NW10      30.15S
HALLOCK        SUNNY     73  50  43 NW9       30.16S
ROSEAU         SUNNY     72  57  60 NW6       30.16R
WARROAD        SUNNY     72  59  64 W7        30.15S
THIEF RVR FALL SUNNY     73  56  54 NW9       30.17S
CROOKSTON      SUNNY     75  59  57 N9        30.16S
FOSSTON        SUNNY     75  59  57 NW8       30.17S
DETROIT LAKES  SUNNY     73  64  73 N5        30.17F
MOORHEAD       SUNNY     79  63  57 N7        30.15F
PARK RAPIDS    SUNNY     77  66  68 NW10      30.14F
MAHNOMEN       FAIR      74  64  69 NW7       30.16S
$$
MNZ006-009>011-018-025>026-300100-
   North Central Minnesota

CITY           SKY/WX    TMP DP  RH WIND       PRES   REMARKS
BAUDETTE       CLEAR     72  59  63 NW9       30.12S
FLAG ISLAND    SUNNY     72  55  56 NW5       30.12S
INTL FALLS     CLEAR     75  63  66 NW6       30.10S
6HR MIN TEMP:  75; 6HR MAX TEMP:  80;

WASKISH        CLEAR     75  63  64 W7        30.13S
BIG FORK       CLEAR     75  66  73 W3        30.12F
LONGVILLE      CLOUDY    75  70  83 NW5       30.13S
GRAND RAPIDS   CLOUDY    76  69  79 NW9       30.13F
CRANE LAKE     MOCLDY    72  66  83 VRB1      30.12S
ORR            PTCLDY    75  66  73 CALM      30.08F
COOK           PTCLDY    75  66  73 W3        30.11F
WALKER         FAIR      74  67  77 NW7       30.14S
$$
MNZ012-019>021-037-300100-
   Northeast Minnesota

CITY           SKY/WX    TMP DP  RH WIND       PRES   REMARKS
DULUTH         CLOUDY    80  69  69 CALM      30.10F
6HR MIN TEMP:  75; 6HR MAX TEMP:  83;

ELY            MOCLDY    73  66  78 W5        30.11F
HIBBING        CLOUDY    74  68  81 N7        30.11F
EVELETH        CLOUDY    75  68  77 CALM      30.12F
DULUTH HARBOR  PTCLDY    82  72  69 SW5       30.07F
TWO HARBORS    CLEAR     79  73  83 CALM      30.07F
SILVER BAY     MOCLDY    75  72  88 CALM      30.07F
GRAND MARAIS     N/A     66  65  96 SW3       30.06F
G MARAIS ARPRT CLEAR     68  61  77 CALM      30.12F
$$
MNZ029>031-032-039>041-046>048-054>057-064-300100-
   West Central Minnesota

CITY           SKY/WX    TMP DP  RH WIND       PRES   REMARKS
FERGUS FALLS   SUNNY     77  70  78 N8        30.14S
WHEATON        MOSUNNY   82  72  69 N7        30.13S
MORRIS         MOSUNNY   82  72  69 N2        30.11
ALEXANDRIA     MOSUNNY   81  71  71 W5        30.14F
ELBOW LAKE     FAIR      80  72  76 N6        30.13F
WADENA         SUNNY     77  70  78 NW5       30.13F
GLENWOOD       MOSUNNY   81  73  78 W5        30.13F
APPLETON       MOSUNNY   82  73  74 CALM      30.10S
BENSON         MOSUNNY   82  72  69 CALM      30.10F
ORTONVILLE     PTSUNNY   82  72  69 N3        30.11S
MADISON        CLOUDY    82  72  69 CALM      30.10F
WILLMAR        FAIR      82  75  78 CALM      30.12F
$$
MNZ033>034-036-042>043-049>051-058-059-300100-
   Central Minnesota

CITY           SKY/WX    TMP DP  RH WIND       PRES   REMARKS
ST CLOUD       PTCLDY    82  74  76 SW6       30.10F
6HR MIN TEMP:  82; 6HR MAX TEMP:  86;

SAUK CENTRE    FAIR      82  73  75 W7        30.11F
PAYNESVILLE    PTCLDY    81  71  71 SW5       30.11F
AITKIN         CLEAR     82  66  57 CALM      30.09F
PINE RIVER     PTCLDY    81  72  74 NW5       30.14F
BRAINERD       CLEAR     81  69  67 W7        30.10F
STAPLES        CLEAR     81  68  65 W6        30.12F
LONG PRAIRIE   MOCLDY    81  72  74 W6        30.12F
LITTLE FALLS   MOCLDY    77  72  83 CALM      30.11S
LITCHFIELD     PTCLDY    82  73  74 CALM      30.11F
BUFFALO        PTCLDY    82  73  73 SW5       30.12F
MAPLE LAKE     PTCLDY    83  75  79 CALM      30.11F HX  90
HUTCHINSON     CLEAR     82  76  81 SW3       30.12F
$$
MNZ037-044-045-052-053-300100-
   East Central Minnesota

CITY           SKY/WX    TMP DP  RH WIND       PRES   REMARKS
PRINCETON      PTCLDY    82  73  74 S7        30.11S THUNDER
MORA           TSTM      64  59  82 CALM      30.14F
CAMBRIDGE      MOCLDY    82  70  65 SW6       30.09F
RUSH CITY      CLOUDY    80  71  73 CALM      30.10S
MOOSE LAKE     CLOUDY    81  70  69 SW3       30.08F
HINCKLEY       HVY RAIN  73  72  94 W20G29    30.12F
CLOQUET        CLEAR     79  66  65 CALM      30.10F
MCGREGOR       CLOUDY    81  68  65 W3        30.10F
$$
MNZ071>073-080-081-089-090-097-098-300100-
   Southwest Minnesota

CITY           SKY/WX    TMP DP  RH WIND       PRES   REMARKS
MONTEVIDEO     MOSUNNY   84  75  74 CALM      30.11F HX  92
GRANITE FALLS  PTSUNNY   83  74  75 S6        30.12F HX  90
CANBY          CLOUDY    85  72  65 SW6       30.12F HX  90
MARSHALL       MOSUNNY   82  73  74 SW7       30.12F
REDWOOD FALLS  CLOUDY    82  72  71 SW7       30.12S
OLIVIA         MOCLDY    81  72  74 SW3       30.11F
PIPESTONE        N/A     81  72  74 S1        30.16S
WINDOM         PTCLDY    81  70  69 SW5       30.16R
WORTHINGTON    MOSUNNY   78  68  71 S3        30.17R
JACKSON        PTCLDY    81  68  65 S3        30.17R
TRACY          MOSUNNY   82  74  77 CALM      30.14S
SLAYTON        PTSUNNY   77  70  78 S3        30.17S
$$
MNZ065>067-074>077-082>085-091>093-300100-
   South Central Minnesota

CITY           SKY/WX    TMP DP  RH WIND       PRES   REMARKS
NEW ULM        PTCLDY    82  73  74 S5        30.12F
ST JAMES       CLEAR     79  70  73 SE5       30.15R
FAIRMONT       CLEAR     78  72  81 S8        30.16R
GLENCOE        MOCLDY    82  77  87 S3        30.11F HX  90
FARIBAULT      CLEAR     81  70  69 S3        30.14S
OWATONNA       CLEAR     81  70  69 SW3       30.15S
WASECA         CLEAR     77  68  73 S6        30.16S
ALBERT LEA     CLEAR     79  66  65 CALM      30.17R
$$
MNZ078>079-086>088-094>096-300100-
   Southeast Minnesota

CITY           SKY/WX    TMP DP  RH WIND       PRES   REMARKS
ROCHESTER      PTCLDY    79  72  79 S6        30.17F
6HR MIN TEMP:  79; 6HR MAX TEMP:  84;

RED WING       CLEAR     82  70  65 CALM      30.11S
STANTON        CLEAR     81  70  69 SW6       30.12S
DODGE CENTER   CLEAR     81  70  69 S6        30.16F
WINONA         MOCLDY    79  70  73 CALM      30.14F
AUSTIN         CLEAR     79  70  73 S3        30.17R
PRESTON        CLOUDY    77  70  79 S5        30.19S
$$
ABBREVIATIONS USED IN REMARKS
   TC - TEMPERATURES IN CELSIUS
  WCI - WIND CHILL INDEX
   HX - HEAT INDEX
  VSB - VISIBILITY
$$




USA.gov is the U.S. government's official web portal to all federal, state and local government web resources and services.